EW0322 Weather Reports


time (UTC)temp
C
wind
direction
speed
KPH
gust
KPH
rain 1hr
cm
rain 24hr
cm
rain mn
cm
humidity
%
barometer
mb
20260503190001 23 281 0.0 4.8 0.00 0.00 0.00 32 1012.6
20260503184607 22 281 0.0 6.4 0.00 0.00 0.00 34 1012.9
20260503183055 22 291 0.0 4.8 0.00 0.00 0.00 35 1013.4
20260503181554 22 304 3.2 9.7 0.00 0.00 0.00 35 1013.5
20260503180057 21 345 1.6 8.0 0.00 0.00 0.00 36 1013.9
20260503174552 20 344 3.2 16.1 0.00 0.00 0.00 37 1014.3
20260503173043 21 346 3.2 9.7 0.00 0.00 0.00 37 1014.4
20260503171540 20 346 1.6 6.4 0.00 0.00 0.00 38 1014.5
20260503081532 14 42 3.2 9.7 0.00 0.00 0.00 52 1015.3
20260503071518 15 42 3.2 8.0 0.00 0.00 0.00 52 1016.0
20260503054506 15 42 3.2 9.7 0.00 0.00 0.00 50 1015.6
20260503053006 15 42 3.2 11.3 0.00 0.00 0.00 49 1015.5
20260503051505 16 41 6.4 19.3 0.00 0.00 0.00 48 1015.6
20260503050005 16 41 4.8 14.5 0.00 0.00 0.00 48 1015.6
20260503044506 16 41 4.8 14.5 0.00 0.00 0.00 47 1015.5
20260503043004 16 41 6.4 20.9 0.00 0.00 0.00 46 1015.4
20260503041506 16 36 8.0 19.3 0.00 0.00 0.00 45 1015.6
20260503040004 17 34 3.2 14.5 0.00 0.00 0.00 44 1015.7
20260503034502 17 35 3.2 9.7 0.00 0.00 0.00 43 1015.6
20260503033001 17 34 3.2 12.9 0.00 0.00 0.00 41 1015.5
20260503031603 18 34 1.6 12.9 0.00 0.00 0.00 41 1015.5
20260503024600 18 35 4.8 9.7 0.00 0.00 0.00 39 1014.9
20260503023100 19 35 3.2 12.9 0.00 0.00 0.00 38 1014.7
20260503021558 19 35 0.0 9.7 0.00 0.00 0.00 37 1014.6
20260503020058 20 33 3.2 12.9 0.00 0.00 0.00 36 1014.5
20260503014603 20 33 4.8 9.7 0.00 0.00 0.00 36 1014.1
20260503013057 20 44 1.6 4.8 0.00 0.00 0.00 35 1013.9
20260503011555 20 44 3.2 6.4 0.00 0.00 0.00 34 1013.8
20260503010056 20 51 0.0 6.4 0.00 0.00 0.00 34 1013.7
20260503004557 21 57 0.0 6.4 0.00 0.00 0.00 33 1013.7
20260503003056 21 58 0.0 4.8 0.00 0.00 0.00 33 1013.9
20260503001554 21 58 0.0 4.8 0.00 0.00 0.00 32 1013.7
20260503000052 21 57 0.0 4.8 0.00 0.00 0.00 32 1013.8
20260502234555 21 58 0.0 4.8 0.00 0.00 0.00 33 1013.9
20260502233051 21 56 0.0 6.4 0.00 0.00 0.00 32 1014.0
20260502231548 21 56 0.0 3.2 0.00 0.00 0.00 33 1014.1
20260502230047 21 56 0.0 4.8 0.00 0.00 0.00 33 1014.3
20260502224547 21 45 0.0 4.8 0.00 0.00 0.00 33 1014.4
20260502223045 21 41 1.6 6.4 0.00 0.00 0.00 33 1014.6
20260502221539 20 38 3.2 6.4 0.00 0.00 0.00 34 1014.7
20260502220038 20 37 4.8 11.3 0.00 0.00 0.00 34 1015.0
20260502214549 20 56 3.2 14.5 0.00 0.00 0.00 34 1015.4
20260502213039 20 48 1.6 17.7 0.00 0.00 0.00 35 1015.5
20260502211535 20 55 0.0 6.4 0.00 0.00 0.00 35 1015.8
20260502210036 20 57 1.6 11.3 0.00 0.00 0.00 36 1016.2
20260502204531 19 52 4.8 11.3 0.00 0.00 0.00 37 1016.5
20260502203030 20 53 1.6 11.3 0.00 0.00 0.00 37 1016.7
20260502201526 18 52 1.6 8.0 0.00 0.00 0.00 39 1017.0
20260502200026 18 53 1.6 11.3 0.00 0.00 0.00 39 1017.2
20260502194531 18 64 1.6 6.4 0.00 0.00 0.00 39 1017.4
20260502193025 18 75 1.6 9.7 0.00 0.00 0.00 39 1017.7
20260502191523 18 66 1.6 9.7 0.00 0.00 0.00 40 1017.8